[[{"header":{"parameterUnit":"m.s-1","parameterCategory":2,"la1":30.2991,"la2":30.254,"lo1":-89.0895,"lo2":-89.0444,"dy":0.0017,"dx":0.0017,"nx":28,"ny":28,"refTime":"2025-07-24T09:00:00:Z","depth":"0","parameterNumber":2,"parameterNumberName":"U-component_of_CURRENTS"},"data":[0,0,0,0,0,0,0,0,0,0,0,0,0,0,0,0,0,0,0,0,0,0,0,0,0,0,0,0,0,0,0,0,0,0,0,0,0,0,0,0,0,0,0,0,0,0,0,0,0,0,0,0,0,0,0,0,0,0,0.2597,0.2597,0,0.2591,0.2591,0.2591,0.2589,0.2589,0.2589,0.2589,0.2582,0.2581,0.2581,0,0,0,0,0,0,0,0,0,0,0,0,0,0.2615,0.2615,0.2597,0.2597,0.2597,0.2591,0.2591,0.2591,0.2589,0.2589,0.2589,0.2589,0.2582,0.2581,0.2581,0,0,0,0,0,0,0,0,0,0,0,0,0,0.2607,0.2614,0.2597,0.2596,0.2595,0.2591,0.2591,0.2591,0.2589,0.2589,0.2589,0.2589,0.2582,0.2582,0.2581,0.2576,0,0,0.258,0.258,0,0,0,0,0,0,0,0,0.2608,0.2607,0.2596,0.2596,0.2595,0.2591,0.2595,0.2586,0.2589,0.2591,0.2589,0.2589,0.2585,0.2584,0.2582,0.2576,0.2576,0.258,0.258,0.2579,0.2579,0,0,0,0,0,0,0,0.2608,0.2607,0.2594,0.2596,0.2596,0.2598,0.2597,0.2593,0.2587,0.259,0.259,0.2591,0.2585,0.2583,0.2582,0.2576,0.258,0.258,0.2579,0.2579,0.2603,0.2604,0,0,0,0,0,0,0.2609,0.2607,0.2594,0.2594,0.2603,0.2598,0.2597,0.2592,0.2587,0.2586,0.2591,0.2591,0.2583,0.2582,0.2582,0.264,0.2579,0.2579,0.2579,0.2602,0.2603,0.2604,0,0,0,0,0,0,0.261,0.2608,0.2594,0.2601,0.26,0.2597,0.2592,0.2592,0.2594,0.2587,0.2586,0.2593,0.2583,0.2582,0.2585,0.2637,0.2579,0.2579,0.2601,0.2602,0.2603,0.2716,0,0,0,0,0,0,0.261,0.2608,0.2605,0.2601,0.2599,0.2601,0.2592,0.2592,0.2594,0.2594,0.2589,0.2588,0.2583,0.2586,0.2585,0.2636,0.2578,0.26,0.2601,0.2603,0.2711,0.2721,0.2729,0,0,0,0,0,0.2611,0.2609,0.2604,0.2603,0.2595,0.2602,0.2601,0.26,0.2594,0.26,0.2595,0.2589,0.2596,0.2586,0.2584,0.2637,0.2599,0.2601,0.2603,0.2707,0.2719,0.2729,0,0,0,0,0,0,0.2619,0.2609,0.2603,0.2599,0.2604,0.2602,0.2606,0.2602,0.2602,0.2603,0.2592,0.2591,0.2621,0.2598,0.2587,0.2645,0.2599,0.2601,0.2679,0.269,0.2699,0.2732,0.2578,0,0,0,0,0,0.2617,0.2612,0.2609,0.2608,0.261,0.2607,0.2609,0.261,0.261,0.261,0.2606,0.2606,0.2627,0.2632,0.2635,0.2656,0.2664,0.2688,0.2697,0.2706,0.273,0.2805,0.2825,0.261,0.261,0.261,0,0,0.2621,0.2614,0.2611,0.2609,0.2611,0.2629,0.2609,0.2619,0.2646,0.2609,0.2638,0.2637,0.2637,0.2674,0.2685,0.2663,0.2761,0.2708,0.2716,0.2735,0.2809,0.2831,0.285,0.2612,0.2611,0.2611,0,0,0.2633,0.262,0.2625,0.2635,0.2641,0.2644,0.2648,0.2651,0.2666,0.2684,0.2683,0.2713,0.2709,0.2747,0.276,0.2815,0.2808,0.2805,0.2884,0.2957,0.2977,0.2994,0.3,0.3017,0.281,0.281,0.2811,0,0.2641,0.2647,0.263,0.2649,0.2672,0.2654,0.2689,0.2699,0.2705,0.2741,0.2705,0.2773,0.2759,0.2857,0.2869,0.2845,0.2855,0.2849,0.2975,0.2992,0.3008,0.301,0.3028,0.2816,0.2815,0.2815,0.2814,0,0.266,0.2677,0.2686,0.2705,0.2726,0.275,0.277,0.2791,0.2798,0.2822,0.2905,0.2901,0.2947,0.2951,0.2921,0.3039,0.2996,0.2983,0.2958,0.3038,0.3032,0.3049,0.2824,0.2822,0.282,0.2819,0,0,0.266,0.2694,0.2699,0.2731,0.2765,0.2785,0.2843,0.2906,0.296,0.2982,0.3067,0.3113,0.3118,0.3133,0.3124,0.3179,0.3271,0.3124,0.3125,0.3148,0.3392,0.3207,0.3206,0.3288,0.3292,0.3295,0.3332,0,0.2689,0.2733,0.2753,0.2819,0.2852,0.2885,0.2945,0.3002,0.3041,0.3105,0.316,0.3219,0.3188,0.3209,0.3272,0.3266,0.3324,0.3259,0.3295,0.3296,0.3139,0.3224,0.301,0.3013,0.3348,0.3351,0.3352,0,0.2707,0.2739,0.2801,0.2893,0.2913,0.2951,0.3057,0.311,0.3208,0.3245,0.3337,0.3353,0.3443,0.3387,0.3488,0.3446,0.3436,0.3431,0.3433,0.324,0.3143,0.2992,0.303,0.2969,0.3377,0.3375,0.3373,0,0.2706,0.2783,0.2835,0.2862,0.2949,0.3,0.3052,0.3154,0.3213,0.333,0.3369,0.3495,0.3526,0.3583,0.3552,0.3533,0.3629,0.3602,0.3442,0.3426,0.3241,0.32,0.3243,0.3704,0.3703,0.3703,0.3703,0,0.273,0.2776,0.2832,0.286,0.294,0.3008,0.3102,0.3175,0.3277,0.334,0.3432,0.3487,0.358,0.3621,0.3607,0.3555,0.3684,0.3476,0.3445,0.3263,0.3226,0.3157,0.3152,0.3705,0.3704,0.3704,0.3704,0,0.2724,0.2755,0.2821,0.291,0.2934,0.2992,0.3095,0.316,0.326,0.3337,0.3371,0.3499,0.3534,0.3585,0.3649,0.359,0.3463,0.3532,0.3269,0.3205,0.2947,0.2955,0.2866,0.2796,0.3362,0.3358,0.3354,0,0.2725,0.2755,0.2832,0.2859,0.2896,0.2974,0.3022,0.3134,0.3195,0.3318,0.3347,0.3423,0.3423,0.3441,0.3369,0.3321,0.3309,0.3108,0.304,0.292,0.291,0.2848,0.2795,0.2832,0.2825,0.2819,0.2814,0,0.2749,0.2766,0.2811,0.2846,0.289,0.2946,0.3017,0.3049,0.3161,0.3199,0.3242,0.3247,0.3223,0.3072,0.3007,0.2959,0.2931,0.2976,0.2963,0.2591,0.2423,0.2341,0.2789,0.276,0.2766,0.277,0.2773,0.2775,0.2758,0.2775,0.2806,0.2834,0.287,0.2888,0.2877,0.2934,0.2961,0.294,0.3053,0.2949,0.2849,0.2694,0.2641,0.2414,0.2513,0.2322,0.2367,0.2336,0.2188,0.2469,0.2332,0.2335,0.2337,0.2339,0.2341,0,0.2741,0.2751,0.2789,0.2784,0.276,0.2812,0.2839,0.2778,0.271,0.2707,0.2668,0.247,0.2284,0.22,0.1963,0.1846,0.1807,0.182,0.1741,0.1744,0.2085,0.1979,0.1623,0.1623,0.1623,0.1623,0.1623,0.1623,0.2734,0.2724,0.272,0.2651,0.2638,0.2545,0.2518,0.2439,0.2399,0.2185,0.2021,0.1978,0.193,0.1759,0.1565,0.1516,0.1478,0.1335,0.1465,0.1752,0.1805,0.1855,0.1757,0.136,0.136,0.1001,0.0999,0.0997]},{"header":{"parameterUnit":"m.s-1","parameterCategory":2,"la1":30.2991,"la2":30.254,"lo1":-89.0895,"lo2":-89.0444,"dy":0.0017,"dx":0.0017,"nx":28,"ny":28,"refTime":"2025-07-24T09:00:00:Z","depth":"0","parameterNumber":3,"parameterNumberName":"V-component_of_CURRENTS"},"data":[0,0,0,0,0,0,0,0,0,0,0,0,0,0,0,0,0,0,0,0,0,0,0,0,0,0,0,0,0,0,0,0,0,0,0,0,0,0,0,0,0,0,0,0,0,0,0,0,0,0,0,0,0,0,0,0,0,0,-0.0118,-0.0118,0,-0.0126,-0.0126,-0.0126,-0.0146,-0.0147,-0.0147,-0.0147,-0.0173,-0.0173,-0.0173,0,0,0,0,0,0,0,0,0,0,0,0,0,-0.0122,-0.0122,-0.0118,-0.0118,-0.0118,-0.0126,-0.0126,-0.0126,-0.0146,-0.0147,-0.0147,-0.0147,-0.0173,-0.0173,-0.0173,0,0,0,0,0,0,0,0,0,0,0,0,0,-0.0124,-0.0121,-0.0118,-0.0129,-0.013,-0.0126,-0.0126,-0.0126,-0.0146,-0.0147,-0.0147,-0.0148,-0.0172,-0.0173,-0.0173,-0.0165,0,0,-0.0175,-0.0175,0,0,0,0,0,0,0,0,-0.0124,-0.0124,-0.0127,-0.0128,-0.0129,-0.0135,-0.0136,-0.014,-0.0146,-0.014,-0.0147,-0.0148,-0.0161,-0.0162,-0.0163,-0.0166,-0.0167,-0.0175,-0.0175,-0.0175,-0.0176,0,0,0,0,0,0,0,-0.0124,-0.0124,-0.0122,-0.0127,-0.0128,-0.0133,-0.0134,-0.0137,-0.0148,-0.0141,-0.0142,-0.0142,-0.0162,-0.0163,-0.0164,-0.0168,-0.0175,-0.0175,-0.0176,-0.0176,-0.0174,-0.0174,0,0,0,0,0,0,-0.0121,-0.0124,-0.0121,-0.0122,-0.0127,-0.0133,-0.0134,-0.0133,-0.0148,-0.015,-0.0142,-0.0143,-0.0161,-0.0163,-0.0165,-0.0172,-0.0175,-0.0176,-0.0176,-0.0174,-0.0174,-0.0173,0,0,0,0,0,0,-0.0121,-0.0121,-0.0121,-0.0123,-0.0123,-0.0132,-0.0131,-0.0133,-0.0133,-0.0148,-0.0151,-0.014,-0.0162,-0.0164,-0.0168,-0.0172,-0.0176,-0.0176,-0.0175,-0.0174,-0.0174,-0.0175,0,0,0,0,0,0,-0.0121,-0.0121,-0.0118,-0.0122,-0.0123,-0.0113,-0.013,-0.0133,-0.0132,-0.0134,-0.0147,-0.015,-0.0163,-0.0167,-0.0168,-0.0173,-0.0177,-0.0175,-0.0174,-0.0174,-0.0175,-0.0175,-0.0174,0,0,0,0,0,-0.0121,-0.0113,-0.0118,-0.0117,-0.0119,-0.0112,-0.0113,-0.0122,-0.0131,-0.0126,-0.0139,-0.015,-0.0164,-0.0167,-0.0168,-0.0174,-0.0175,-0.0175,-0.0174,-0.0176,-0.0175,-0.0174,0,0,0,0,0,0,-0.0115,-0.0115,-0.012,-0.0113,-0.0111,-0.0116,-0.0111,-0.0118,-0.0123,-0.0127,-0.0145,-0.0148,-0.0153,-0.0157,-0.016,-0.017,-0.0171,-0.0171,-0.0172,-0.0172,-0.0171,-0.0159,-0.0177,0,0,0,0,0,-0.0112,-0.0104,-0.0106,-0.01,-0.0098,-0.0104,-0.0102,-0.0108,-0.0113,-0.0116,-0.0127,-0.0139,-0.015,-0.0156,-0.0162,-0.0165,-0.0137,-0.0168,-0.0168,-0.0167,-0.0157,-0.0088,-0.0079,-0.0171,-0.0171,-0.0171,0,0,-0.0109,-0.0106,-0.0104,-0.0098,-0.0098,-0.0093,-0.0104,-0.0098,-0.0099,-0.0118,-0.0122,-0.0134,-0.0149,-0.0156,-0.0159,-0.0162,-0.0133,-0.0166,-0.0166,-0.0156,-0.0086,-0.0077,-0.0069,-0.017,-0.0171,-0.0171,0,0,-0.0095,-0.0095,-0.0084,-0.0081,-0.0076,-0.008,-0.0077,-0.0079,-0.0086,-0.0087,-0.0107,-0.0116,-0.0129,-0.0143,-0.0152,-0.0146,-0.0129,-0.0153,-0.0145,-0.0078,-0.0069,-0.0061,-0.0043,-0.0033,-0.0156,-0.0156,-0.0156,0,-0.0093,-0.0082,-0.008,-0.0069,-0.0068,-0.0073,-0.0067,-0.007,-0.0075,-0.0077,-0.0086,-0.0095,-0.0121,-0.0125,-0.0141,-0.0145,-0.0113,-0.0151,-0.0075,-0.0066,-0.0058,-0.0041,-0.003,-0.0156,-0.0156,-0.0156,-0.0156,0,-0.0071,-0.0065,-0.0057,-0.0049,-0.0046,-0.0038,-0.0044,-0.0043,-0.0053,-0.0057,-0.0054,-0.0073,-0.0074,-0.0096,-0.0127,-0.0095,-0.0095,-0.0079,-0.0075,-0.0049,-0.0033,-0.0022,-0.0156,-0.0156,-0.0156,-0.0156,0,0,-0.0063,-0.0046,-0.0044,-0.0032,-0.0037,-0.0024,-0.0032,-0.0031,-0.001,-0.0026,0.0014,-0.0048,-0.0043,-0.0052,-0.0077,-0.0048,0.0001,-0.0048,-0.0044,-0.0028,0.0128,0.008,0.0087,0.0044,0.0047,0.0049,0.0106,0,-0.0049,-0.0019,-0.0025,-0.0003,0.001,-0.0003,0.0001,0.0,0.0007,0.005,0.0029,0.0058,-0.0028,-0.001,0.0,0.0027,0.0037,-0.0017,0.0098,0.0101,0.0058,0.0101,0.0092,0.0139,0.0117,0.0119,0.012,0,-0.0032,-0.0011,0.0011,0.0033,0.0038,0.0046,0.0068,0.0076,0.0108,0.0123,0.0139,0.0148,0.0161,0.0121,0.0153,0.013,0.0117,0.0123,0.0127,0.0096,0.0075,0.0115,0.0161,0.0108,0.0138,0.0136,0.0135,0,-0.0011,0.0012,0.0034,0.004,0.0061,0.0067,0.0079,0.0095,0.0144,0.0197,0.0264,0.0264,0.0326,0.0314,0.0268,0.024,0.0334,0.0309,0.0239,0.0234,0.0255,0.0247,0.0269,0.0341,0.0341,0.0341,0.034,0,0.0007,0.0028,0.0053,0.0071,0.0119,0.0108,0.0172,0.0182,0.0258,0.0355,0.0322,0.0419,0.0389,0.042,0.0347,0.0327,0.0394,0.0252,0.0261,0.0247,0.0239,0.0216,0.0173,0.0343,0.0342,0.0342,0.0341,0,0.0032,0.0039,0.0085,0.0117,0.0134,0.0175,0.0259,0.0323,0.0362,0.0507,0.0542,0.0591,0.0615,0.0545,0.0555,0.0453,0.0386,0.0386,0.0337,0.0337,0.02,0.0156,0.0182,0.0162,0.0336,0.0335,0.0335,0,0.005,0.0073,0.0138,0.0191,0.0211,0.0276,0.0334,0.038,0.0471,0.0613,0.071,0.0764,0.0811,0.0764,0.0608,0.0482,0.0401,0.0371,0.0298,0.0201,0.0162,0.0126,0.0105,0.0316,0.0316,0.0315,0.0315,0,0.0099,0.0121,0.0171,0.0275,0.0346,0.0435,0.0525,0.0615,0.0697,0.0813,0.0961,0.1008,0.0938,0.0825,0.0621,0.0513,0.0327,0.0354,0.0307,0.0188,0.0106,0.0088,0.023,0.031,0.031,0.0311,0.0311,0.0311,0.0152,0.0203,0.0276,0.0374,0.0467,0.0581,0.0661,0.0777,0.0924,0.1085,0.1125,0.1196,0.1001,0.0728,0.0584,0.0298,0.0299,0.0203,0.0169,0.015,0.0101,0.0193,0.0246,0.0246,0.0246,0.0246,0.0246,0,0.0227,0.0281,0.0376,0.0493,0.0602,0.063,0.0785,0.0874,0.1042,0.1173,0.1275,0.1199,0.097,0.0709,0.032,0.0148,0.009,0.0061,0.0031,0.0027,0.017,0.0138,0.0107,0.0107,0.0107,0.0108,0.0108,0.0108,0.0275,0.0369,0.0408,0.0583,0.0667,0.0804,0.0888,0.1021,0.1133,0.126,0.1282,0.1271,0.1075,0.0477,0.01,0.0014,-0.0073,-0.0116,-0.0143,-0.0041,-0.003,-0.0019,-0.0058,-0.0129,-0.0129,-0.0262,-0.0264,-0.0265]}],[{"header":{"parameterUnit":"m.s-1","parameterCategory":2,"la1":30.2991,"la2":30.254,"lo1":-89.0895,"lo2":-89.0444,"dy":0.0017,"dx":0.0017,"nx":28,"ny":28,"refTime":"2025-07-24T09:00:00:Z","depth":"2","parameterNumber":2,"parameterNumberName":"U-component_of_CURRENTS"},"data":[0,0,0,0,0,0,0,0,0,0,0,0,0,0,0,0,0,0,0,0,0,0,0,0,0,0,0,0,0,0,0,0,0,0,0,0,0,0,0,0,0,0,0,0,0,0,0,0,0,0,0,0,0,0,0,0,0,0,0.1957,0.1957,0,0.1977,0.1977,0.1977,0.1995,0.1996,0.1996,0.1997,0.2023,0.2023,0.2023,0,0,0,0,0,0,0,0,0,0,0,0,0,0.1965,0.1964,0.1956,0.1957,0.1958,0.1977,0.1977,0.1977,0.1995,0.1996,0.1996,0.1997,0.2023,0.2023,0.2023,0,0,0,0,0,0,0,0,0,0,0,0,0,0.1967,0.1964,0.1956,0.1972,0.1974,0.1977,0.1977,0.1976,0.1995,0.1996,0.1997,0.1998,0.2023,0.2023,0.2023,0.2005,0,0,0.2023,0.2023,0,0,0,0,0,0,0,0,0.1967,0.1966,0.1969,0.1971,0.1974,0.1988,0.199,0.1988,0.1995,0.1982,0.1997,0.1998,0.2014,0.2015,0.201,0.2006,0.2008,0.2023,0.2023,0.2024,0.2024,0,0,0,0,0,0,0,0.1966,0.1965,0.196,0.197,0.1973,0.199,0.199,0.1989,0.1989,0.1984,0.1986,0.1995,0.2014,0.201,0.2011,0.2008,0.2023,0.2023,0.2024,0.2024,0.2063,0.2064,0,0,0,0,0,0,0.197,0.1965,0.196,0.1961,0.1977,0.1989,0.1989,0.1979,0.1989,0.1993,0.1994,0.1996,0.2009,0.2011,0.2012,0.2064,0.2024,0.2024,0.2024,0.2062,0.2064,0.2065,0,0,0,0,0,0,0.1969,0.1968,0.1959,0.1968,0.1969,0.1988,0.1976,0.1979,0.1991,0.1998,0.2001,0.2006,0.201,0.2012,0.2016,0.2062,0.2024,0.2024,0.2061,0.2063,0.2064,0.2121,0,0,0,0,0,0,0.1969,0.1967,0.1968,0.1968,0.1969,0.1977,0.1976,0.1979,0.1996,0.1999,0.2009,0.2011,0.2011,0.2016,0.2016,0.2062,0.2024,0.206,0.2062,0.2064,0.2118,0.2124,0.213,0,0,0,0,0,0.1969,0.1969,0.1968,0.1968,0.1966,0.1978,0.198,0.1994,0.1996,0.2006,0.2003,0.2012,0.2029,0.2016,0.2016,0.2063,0.2059,0.2061,0.2064,0.2115,0.2123,0.213,0,0,0,0,0,0,0.1971,0.1971,0.197,0.1969,0.198,0.1983,0.1997,0.2,0.2004,0.2013,0.2007,0.2009,0.2039,0.2031,0.2017,0.208,0.2053,0.2055,0.2092,0.2099,0.2105,0.2125,0.2024,0,0,0,0,0,0.1971,0.1974,0.1976,0.1979,0.1984,0.1989,0.1998,0.2011,0.2014,0.2018,0.202,0.2029,0.2044,0.2054,0.2063,0.2082,0.2103,0.2117,0.2123,0.2128,0.2144,0.2227,0.2243,0.2072,0.2072,0.2072,0,0,0.1977,0.1976,0.198,0.1981,0.1988,0.1999,0.1997,0.2021,0.204,0.2019,0.2041,0.2048,0.2052,0.2083,0.2097,0.2085,0.2181,0.2131,0.2135,0.2149,0.2231,0.2248,0.2263,0.2073,0.2073,0.2073,0,0,0.199,0.1984,0.1993,0.2004,0.2025,0.2024,0.2033,0.2044,0.2061,0.2081,0.2078,0.2104,0.2117,0.2134,0.2143,0.2182,0.2209,0.2195,0.2244,0.2324,0.234,0.2354,0.2375,0.2391,0.2199,0.22,0.22,0,0.2003,0.1999,0.2001,0.2015,0.2032,0.2034,0.2055,0.2065,0.208,0.211,0.2102,0.2182,0.2148,0.2228,0.2213,0.2201,0.2234,0.2217,0.2335,0.2349,0.2363,0.2382,0.2399,0.2203,0.2202,0.2202,0.2202,0,0.2017,0.2024,0.2032,0.2042,0.2064,0.2082,0.2101,0.2125,0.2144,0.2169,0.2266,0.2266,0.2323,0.2314,0.2253,0.2347,0.2333,0.2334,0.2322,0.2384,0.2399,0.2415,0.2207,0.2206,0.2205,0.2204,0,0,0.2023,0.2038,0.2044,0.206,0.2083,0.2103,0.214,0.2183,0.2233,0.2293,0.238,0.24,0.2441,0.2452,0.2442,0.2476,0.2533,0.2428,0.2431,0.2457,0.2688,0.2488,0.2486,0.2572,0.2576,0.2579,0.265,0,0.2034,0.2069,0.2069,0.2105,0.2129,0.2149,0.2219,0.2273,0.2288,0.2362,0.2444,0.2512,0.2491,0.2524,0.2573,0.2537,0.2584,0.2511,0.2617,0.2619,0.2442,0.2502,0.2305,0.2337,0.2666,0.2668,0.267,0,0.2041,0.2073,0.2107,0.2182,0.2201,0.2232,0.2322,0.2372,0.2468,0.2505,0.2613,0.2647,0.2724,0.2684,0.2785,0.2749,0.2719,0.2703,0.2706,0.2517,0.2451,0.2333,0.2354,0.2697,0.2695,0.2693,0.2691,0,0.2054,0.2094,0.2122,0.2137,0.2225,0.2271,0.2339,0.2435,0.2484,0.2579,0.2636,0.2777,0.2837,0.2898,0.2837,0.2823,0.2915,0.2901,0.2728,0.2713,0.2561,0.2524,0.2989,0.2989,0.2989,0.2989,0.2989,0,0.2051,0.2082,0.2135,0.2155,0.2255,0.2327,0.2409,0.2492,0.2598,0.2655,0.2736,0.2799,0.2888,0.293,0.2901,0.2855,0.2997,0.2746,0.2731,0.2565,0.253,0.2857,0.284,0.2992,0.2991,0.299,0.299,0,0.2041,0.2065,0.2104,0.2205,0.2247,0.2325,0.2432,0.2497,0.262,0.2682,0.2726,0.2825,0.2849,0.2912,0.2937,0.2898,0.288,0.2825,0.2579,0.2531,0.261,0.2596,0.2666,0.266,0.2655,0.2651,0.2647,0,0.2023,0.2043,0.2122,0.2153,0.2184,0.2284,0.2378,0.2503,0.2527,0.2666,0.2703,0.2757,0.2729,0.2738,0.2663,0.2632,0.2732,0.2419,0.2336,0.2605,0.2585,0.2578,0.2572,0.2165,0.2157,0.2151,0.2147,0,0.2012,0.2035,0.2074,0.2128,0.2189,0.2234,0.2342,0.2358,0.2484,0.2537,0.2555,0.2542,0.2528,0.2355,0.2307,0.2263,0.2407,0.2286,0.2705,0.2237,0.2127,0.2107,0.212,0.2093,0.2099,0.2103,0.2106,0.2108,0.201,0.2015,0.2052,0.2092,0.2152,0.2164,0.2153,0.2207,0.2225,0.2245,0.231,0.2236,0.2219,0.199,0.1904,0.1846,0.2005,0.1939,0.1962,0.199,0.188,0.1762,0.1638,0.1641,0.1643,0.1645,0.1647,0,0.1985,0.1992,0.2022,0.2044,0.2039,0.2101,0.2116,0.2037,0.1973,0.2012,0.1972,0.1746,0.1607,0.161,0.1426,0.1384,0.1426,0.1327,0.1395,0.1447,0.1494,0.1363,0.0983,0.0981,0.0979,0.0977,0,0,0.1971,0.1956,0.1948,0.1913,0.1927,0.1855,0.1817,0.1723,0.1683,0.1557,0.1504,0.1566,0.1583,0.1289,0.122,0.1079,0.1269,0.1028,0.1563,0.17,0.1744,0.1843,0.1696,0,0,0,0,0]},{"header":{"parameterUnit":"m.s-1","parameterCategory":2,"la1":30.2991,"la2":30.254,"lo1":-89.0895,"lo2":-89.0444,"dy":0.0017,"dx":0.0017,"nx":28,"ny":28,"refTime":"2025-07-24T09:00:00:Z","depth":"2","parameterNumber":3,"parameterNumberName":"V-component_of_CURRENTS"},"data":[0,0,0,0,0,0,0,0,0,0,0,0,0,0,0,0,0,0,0,0,0,0,0,0,0,0,0,0,0,0,0,0,0,0,0,0,0,0,0,0,0,0,0,0,0,0,0,0,0,0,0,0,0,0,0,0,0,0,0.0143,0.0142,0,0.0138,0.0138,0.0138,0.0122,0.0121,0.0121,0.012,0.0107,0.0107,0.0107,0,0,0,0,0,0,0,0,0,0,0,0,0,0.0124,0.0125,0.0143,0.0142,0.0142,0.0138,0.0138,0.0138,0.0122,0.0121,0.0121,0.012,0.0107,0.0107,0.0107,0,0,0,0,0,0,0,0,0,0,0,0,0,0.0128,0.0125,0.0143,0.0133,0.0132,0.0138,0.0138,0.0138,0.0122,0.0121,0.0121,0.012,0.0107,0.0107,0.0107,0.0122,0,0,0.0108,0.0108,0,0,0,0,0,0,0,0,0.0128,0.0129,0.0134,0.0133,0.0132,0.0129,0.0127,0.0132,0.0122,0.0127,0.012,0.012,0.0113,0.0113,0.0115,0.0121,0.0121,0.0108,0.0108,0.0108,0.0108,0,0,0,0,0,0,0,0.0128,0.0129,0.0142,0.0134,0.0133,0.0124,0.0124,0.0128,0.0125,0.0126,0.0125,0.0123,0.0113,0.0115,0.0115,0.0121,0.0108,0.0108,0.0108,0.0108,0.0112,0.0112,0,0,0,0,0,0,0.0128,0.0129,0.0142,0.0142,0.0127,0.0125,0.0125,0.0132,0.0125,0.0123,0.0124,0.0122,0.0115,0.0115,0.0114,0.0123,0.0108,0.0108,0.0108,0.0112,0.0112,0.0112,0,0,0,0,0,0,0.0128,0.0129,0.0142,0.0134,0.0135,0.0126,0.0133,0.0132,0.013,0.0123,0.0121,0.0123,0.0115,0.0114,0.0115,0.0122,0.0108,0.0108,0.0112,0.0112,0.0112,0.0146,0,0,0,0,0,0,0.0127,0.013,0.0134,0.0134,0.0135,0.0147,0.0134,0.0132,0.013,0.0128,0.0122,0.012,0.0114,0.0115,0.0115,0.0122,0.0108,0.0112,0.0112,0.0112,0.0144,0.0147,0.0149,0,0,0,0,0,0.0127,0.0136,0.0134,0.0135,0.0141,0.0147,0.0147,0.0139,0.0131,0.0135,0.0127,0.012,0.0115,0.0115,0.0115,0.0123,0.0112,0.0112,0.0112,0.0143,0.0146,0.0149,0,0,0,0,0,0,0.0128,0.0135,0.0133,0.0143,0.0145,0.0144,0.0146,0.0141,0.0139,0.0135,0.0126,0.0124,0.0125,0.0119,0.0119,0.0122,0.011,0.0111,0.0134,0.0137,0.0139,0.0172,0.0108,0,0,0,0,0,0.0131,0.014,0.0143,0.0151,0.0154,0.0151,0.0151,0.0146,0.0144,0.0142,0.0138,0.013,0.0128,0.0128,0.0123,0.0132,0.0133,0.0134,0.0136,0.0138,0.0163,0.0174,0.018,0.0113,0.0113,0.0113,0,0,0.0132,0.0138,0.0142,0.0151,0.0153,0.0166,0.0149,0.0153,0.0163,0.0142,0.0153,0.0139,0.013,0.0135,0.0135,0.0131,0.0151,0.0138,0.014,0.0165,0.0175,0.0182,0.0188,0.0113,0.0113,0.0113,0,0,0.0145,0.0147,0.0161,0.0167,0.0171,0.0172,0.0174,0.0175,0.0176,0.0181,0.0167,0.0165,0.0157,0.016,0.0158,0.0173,0.0161,0.0158,0.0201,0.021,0.0217,0.0222,0.021,0.0214,0.0161,0.0161,0.0161,0,0.0145,0.017,0.0165,0.0182,0.0193,0.0178,0.0199,0.02,0.0199,0.0216,0.0187,0.0187,0.0175,0.0196,0.0198,0.0181,0.0176,0.0192,0.0216,0.0221,0.0227,0.0213,0.0217,0.0163,0.0163,0.0163,0.0162,0,0.0172,0.0192,0.0202,0.0223,0.0229,0.0245,0.0246,0.0256,0.0248,0.0255,0.0265,0.024,0.0246,0.0231,0.0221,0.0251,0.0229,0.0215,0.0214,0.0236,0.0219,0.0223,0.0165,0.0165,0.0164,0.0164,0,0,0.0177,0.0216,0.022,0.025,0.0256,0.0274,0.029,0.0321,0.036,0.0329,0.0371,0.0344,0.0329,0.0327,0.03,0.0309,0.0326,0.0283,0.0283,0.028,0.0333,0.0287,0.0287,0.0315,0.0317,0.0318,0.0298,0,0.0205,0.0253,0.0262,0.0314,0.0342,0.0346,0.0365,0.0385,0.0407,0.0443,0.041,0.0431,0.0363,0.0368,0.036,0.0351,0.0343,0.0333,0.0305,0.0305,0.0269,0.0292,0.0293,0.0274,0.0302,0.0302,0.0303,0,0.0235,0.0266,0.0319,0.0379,0.0392,0.0415,0.0477,0.0495,0.0534,0.055,0.0554,0.0538,0.0536,0.0475,0.0443,0.0438,0.0392,0.0368,0.0366,0.0324,0.0268,0.026,0.028,0.031,0.0309,0.0308,0.0308,0,0.0256,0.0315,0.0365,0.0383,0.0432,0.0464,0.0485,0.0529,0.0582,0.0627,0.0674,0.0646,0.0644,0.0587,0.051,0.0488,0.0479,0.0438,0.0344,0.0339,0.0338,0.0331,0.042,0.042,0.042,0.042,0.0421,0,0.0294,0.0338,0.0384,0.0416,0.0484,0.0493,0.0587,0.0607,0.0669,0.075,0.0722,0.0768,0.0678,0.0651,0.056,0.0465,0.0505,0.0368,0.0342,0.0344,0.0338,0.0372,0.0367,0.042,0.042,0.042,0.042,0,0.032,0.0345,0.0418,0.0479,0.0501,0.0547,0.0648,0.0727,0.0757,0.0863,0.0878,0.088,0.083,0.0726,0.0649,0.0536,0.0453,0.0403,0.0397,0.0371,0.0289,0.0285,0.0303,0.0301,0.03,0.0299,0.0298,0,0.0348,0.0382,0.0466,0.0518,0.0555,0.0634,0.0699,0.0758,0.0847,0.0931,0.0981,0.0966,0.0951,0.0797,0.0624,0.0455,0.0435,0.0337,0.0294,0.031,0.0283,0.0281,0.0279,0.0294,0.0293,0.0293,0.0292,0,0.0404,0.0426,0.0488,0.0582,0.0665,0.0772,0.0861,0.0939,0.1013,0.1082,0.1139,0.1129,0.0975,0.0801,0.0568,0.045,0.0363,0.0315,0.0366,0.0317,0.0298,0.0272,0.0271,0.0286,0.0286,0.0287,0.0287,0.0287,0.0454,0.0499,0.0571,0.0667,0.0761,0.0875,0.0963,0.1061,0.1166,0.1231,0.1222,0.118,0.1008,0.0684,0.0497,0.0297,0.0307,0.0225,0.0229,0.0234,0.023,0.0209,0.0178,0.0178,0.0178,0.0178,0.0178,0,0.0514,0.056,0.0651,0.0765,0.0869,0.0905,0.1052,0.1123,0.1222,0.1256,0.1264,0.1073,0.0882,0.0679,0.0376,0.0198,0.0194,0.0136,0.0175,0.0182,0.0188,0.0183,0.0119,0.0118,0.0117,0.0117,0,0,0.0549,0.0635,0.0671,0.0828,0.0905,0.1038,0.1114,0.1194,0.1236,0.124,0.1199,0.1145,0.0919,0.0687,0.0458,0.0285,0.0269,0.0245,0.031,0.039,0.0398,0.0256,0.0258,0,0,0,0,0]}],[{"header":{"parameterUnit":"m.s-1","parameterCategory":2,"la1":30.2991,"la2":30.254,"lo1":-89.0895,"lo2":-89.0444,"dy":0.0017,"dx":0.0017,"nx":28,"ny":28,"refTime":"2025-07-24T09:00:00:Z","depth":"4","parameterNumber":2,"parameterNumberName":"U-component_of_CURRENTS"},"data":[0,0,0,0,0,0,0,0,0,0,0,0,0,0,0,0,0,0,0,0,0,0,0,0,0,0,0,0,0,0,0,0,0,0,0,0,0,0,0,0,0,0,0,0,0,0,0,0,0,0,0,0,0,0,0,0,0,0,0.0946,0.0946,0,0.094,0.0939,0.0939,0.0957,0.0958,0.0958,0.0959,0.0968,0.0967,0.0967,0,0,0,0,0,0,0,0,0,0,0,0,0,0.0956,0.0956,0.0946,0.0946,0.0946,0.094,0.0939,0.0939,0.0957,0.0958,0.0959,0.0959,0.0968,0.0968,0.0967,0,0,0,0,0,0,0,0,0,0,0,0,0,0.0949,0.0956,0.0946,0.0956,0.0957,0.094,0.0939,0.0939,0.0957,0.0958,0.0959,0.096,0.0968,0.0968,0.0967,0.0942,0,0,0.0965,0.0965,0,0,0,0,0,0,0,0,0.095,0.0949,0.0954,0.0955,0.0956,0.0952,0.0946,0.0941,0.0956,0.0955,0.0959,0.096,0.0964,0.0964,0.0958,0.0942,0.0943,0.0965,0.0965,0.0964,0.0964,0,0,0,0,0,0,0,0.095,0.0949,0.0942,0.0954,0.0955,0.0954,0.0954,0.0945,0.0953,0.0955,0.0957,0.0958,0.0965,0.0958,0.0958,0.0943,0.0965,0.0964,0.0964,0.0964,0.0992,0.0993,0,0,0,0,0,0,0.0954,0.095,0.0942,0.0942,0.0957,0.0953,0.0953,0.0951,0.0953,0.0954,0.0957,0.0959,0.0959,0.0959,0.0959,0.1006,0.0964,0.0964,0.0963,0.0991,0.0993,0.0994,0,0,0,0,0,0,0.0954,0.0953,0.0943,0.0947,0.0946,0.0952,0.0949,0.095,0.0973,0.0954,0.0956,0.0983,0.096,0.096,0.0982,0.1004,0.0963,0.0963,0.099,0.0992,0.0993,0.1052,0,0,0,0,0,0,0.0954,0.0953,0.0964,0.0947,0.0946,0.0952,0.0948,0.0949,0.0971,0.0974,0.0976,0.0977,0.0961,0.0983,0.0981,0.1002,0.0962,0.0988,0.0991,0.0993,0.1049,0.1055,0.1061,0,0,0,0,0,0.0955,0.0954,0.0964,0.0964,0.0957,0.0953,0.0953,0.0959,0.0972,0.0984,0.0993,0.0978,0.0995,0.0983,0.0981,0.1002,0.0987,0.099,0.0992,0.1046,0.1054,0.1061,0,0,0,0,0,0,0.0963,0.0956,0.0967,0.0966,0.0973,0.0957,0.0969,0.0976,0.0991,0.1003,0.099,0.0991,0.1021,0.1003,0.0991,0.1018,0.0989,0.0991,0.1031,0.1038,0.1045,0.1014,0.0962,0,0,0,0,0,0.0971,0.0971,0.097,0.0973,0.0981,0.0984,0.0989,0.0995,0.0999,0.1008,0.1007,0.1011,0.1022,0.1026,0.1027,0.1037,0.1043,0.105,0.1057,0.1062,0.1037,0.1114,0.1126,0.1002,0.1002,0.1002,0,0,0.0976,0.0972,0.0975,0.0977,0.0984,0.0986,0.099,0.1005,0.1009,0.1005,0.102,0.1037,0.1033,0.1051,0.1061,0.1042,0.1099,0.1066,0.107,0.1041,0.1118,0.1131,0.1141,0.1004,0.1004,0.1003,0,0,0.0973,0.0987,0.0987,0.0991,0.1005,0.1007,0.1021,0.1024,0.1035,0.1044,0.1058,0.1087,0.1082,0.1091,0.1093,0.1132,0.1137,0.1145,0.1145,0.1222,0.1233,0.1242,0.126,0.127,0.1141,0.1141,0.1141,0,0.0989,0.0977,0.0989,0.0987,0.0988,0.1021,0.1021,0.1033,0.1043,0.1053,0.1055,0.1087,0.1092,0.1124,0.1137,0.1145,0.1177,0.1119,0.1232,0.1241,0.125,0.1265,0.1276,0.1144,0.1144,0.1144,0.1144,0,0.0975,0.0976,0.0978,0.0985,0.0992,0.1,0.1015,0.1041,0.1059,0.1062,0.1102,0.1117,0.1141,0.1153,0.1149,0.1219,0.1217,0.1241,0.1214,0.1266,0.1279,0.1289,0.1149,0.1148,0.1147,0.1146,0,0,0.0979,0.0972,0.0975,0.0971,0.099,0.0989,0.1017,0.1039,0.1072,0.1082,0.1117,0.1133,0.1167,0.1171,0.12,0.1241,0.1333,0.1266,0.1269,0.1282,0.148,0.1346,0.1344,0.1404,0.1406,0.1408,0.1461,0,0.0971,0.0953,0.0956,0.0952,0.0944,0.0979,0.0995,0.1022,0.1065,0.1114,0.114,0.1188,0.1171,0.1217,0.1259,0.1334,0.1365,0.1313,0.1424,0.1424,0.1302,0.1354,0.1415,0.1469,0.1471,0.1473,0.1474,0,0.0952,0.0939,0.093,0.0922,0.0926,0.0943,0.0994,0.1016,0.1095,0.1132,0.1192,0.1233,0.1299,0.1294,0.1401,0.1384,0.1423,0.1452,0.1457,0.131,0.1311,0.1406,0.1493,0.1491,0.149,0.1489,0.1487,0,0.0928,0.0916,0.0908,0.0905,0.0914,0.0936,0.0961,0.1028,0.1075,0.118,0.1242,0.1309,0.1392,0.1442,0.1482,0.1482,0.1585,0.1607,0.15,0.149,0.1568,0.1557,0.1668,0.1668,0.1668,0.1668,0.1668,0,0.0897,0.0889,0.0903,0.09,0.0915,0.0921,0.0983,0.1032,0.1126,0.1194,0.1272,0.1338,0.1447,0.1509,0.1518,0.1521,0.1624,0.1485,0.1501,0.1589,0.158,0.1575,0.1563,0.167,0.167,0.1669,0.1669,0,0.0862,0.0872,0.0868,0.0888,0.0911,0.0926,0.1012,0.105,0.1151,0.1262,0.1305,0.1421,0.1495,0.1536,0.1632,0.1577,0.1582,0.1552,0.1599,0.162,0.1424,0.1416,0.1457,0.1453,0.145,0.1447,0.1444,0,0.0828,0.0829,0.0878,0.0897,0.0918,0.0959,0.0992,0.1074,0.1125,0.1284,0.1322,0.1443,0.15,0.1504,0.1552,0.1541,0.1518,0.15,0.1475,0.1394,0.1407,0.1403,0.1399,0.1439,0.1438,0.1437,0.1436,0,0.0773,0.082,0.0834,0.0883,0.0922,0.0949,0.1005,0.1045,0.1142,0.1256,0.1322,0.1352,0.1426,0.1449,0.1445,0.143,0.1504,0.1464,0.1471,0.1448,0.1373,0.1388,0.1388,0.1424,0.1426,0.1427,0.1427,0,0.076,0.0766,0.0813,0.0848,0.0898,0.0906,0.0945,0.0986,0.1047,0.1213,0.123,0.1327,0.1431,0.1391,0.1377,0.1357,0.1345,0.1296,0.1312,0.1326,0.1251,0.1134,0.1119,0,0,0,0,0,0.0727,0.0732,0.0762,0.0788,0.0833,0.0855,0.093,0.0964,0.108,0.1101,0.1165,0.1211,0.1229,0.1259,0.1212,0.1301,0.1335,0.1237,0.1282,0.1357,0.1371,0.1291,0,0,0,0,0,0,0.0707,0.0733,0.074,0.0728,0.0735,0.076,0.0803,0.0874,0.0883,0.1016,0.1027,0.1125,0.1148,0.1248,0.1188,0.1195,0.1194,0.1291,0.1287,0.1349,0.1361,0.1373,0.1295,0,0,0,0,0]},{"header":{"parameterUnit":"m.s-1","parameterCategory":2,"la1":30.2991,"la2":30.254,"lo1":-89.0895,"lo2":-89.0444,"dy":0.0017,"dx":0.0017,"nx":28,"ny":28,"refTime":"2025-07-24T09:00:00:Z","depth":"4","parameterNumber":3,"parameterNumberName":"V-component_of_CURRENTS"},"data":[0,0,0,0,0,0,0,0,0,0,0,0,0,0,0,0,0,0,0,0,0,0,0,0,0,0,0,0,0,0,0,0,0,0,0,0,0,0,0,0,0,0,0,0,0,0,0,0,0,0,0,0,0,0,0,0,0,0,0.021,0.0211,0,0.0223,0.0223,0.0223,0.0236,0.0236,0.0236,0.0237,0.0265,0.0266,0.0266,0,0,0,0,0,0,0,0,0,0,0,0,0,0.0176,0.0177,0.021,0.0211,0.0211,0.0223,0.0223,0.0223,0.0236,0.0236,0.0236,0.0237,0.0265,0.0266,0.0266,0,0,0,0,0,0,0,0,0,0,0,0,0,0.019,0.0177,0.021,0.0219,0.022,0.0223,0.0223,0.0224,0.0236,0.0236,0.0237,0.0237,0.0265,0.0266,0.0266,0.0266,0,0,0.0269,0.0269,0,0,0,0,0,0,0,0,0.0189,0.0191,0.0217,0.0218,0.0219,0.0228,0.0222,0.0239,0.0236,0.0229,0.0237,0.0237,0.0254,0.0256,0.0257,0.0268,0.0269,0.0269,0.027,0.027,0.027,0,0,0,0,0,0,0,0.0188,0.0191,0.0215,0.0217,0.0219,0.0215,0.0217,0.0225,0.024,0.023,0.0231,0.0233,0.0255,0.0256,0.0258,0.0269,0.0269,0.027,0.027,0.0271,0.0301,0.0302,0,0,0,0,0,0,0.0188,0.019,0.0215,0.0216,0.0205,0.0215,0.0218,0.0225,0.024,0.0242,0.0232,0.0233,0.0255,0.0257,0.0259,0.0289,0.027,0.0271,0.0271,0.0301,0.0302,0.0302,0,0,0,0,0,0,0.0188,0.0191,0.0214,0.0203,0.0206,0.0216,0.0223,0.0225,0.0233,0.0242,0.0244,0.0239,0.0255,0.0258,0.0271,0.0289,0.0271,0.0272,0.0301,0.0301,0.0302,0.0331,0,0,0,0,0,0,0.0187,0.019,0.0195,0.0203,0.0206,0.0224,0.0223,0.0225,0.0233,0.0234,0.0248,0.025,0.0255,0.0269,0.0272,0.029,0.0273,0.03,0.0301,0.0302,0.0329,0.0332,0.0334,0,0,0,0,0,0.0185,0.0195,0.0196,0.0199,0.0213,0.0224,0.0226,0.0233,0.0233,0.024,0.0246,0.025,0.0275,0.027,0.0273,0.0292,0.03,0.0301,0.0302,0.0328,0.0332,0.0334,0,0,0,0,0,0,0.0183,0.0197,0.0198,0.0212,0.0219,0.0226,0.0233,0.0235,0.0244,0.0246,0.0253,0.0256,0.0273,0.0275,0.027,0.0301,0.0289,0.029,0.0308,0.0311,0.0314,0.0329,0.0274,0,0,0,0,0,0.0184,0.0196,0.0205,0.0216,0.022,0.0226,0.0231,0.0235,0.0243,0.0248,0.0259,0.0267,0.0276,0.0287,0.0293,0.0311,0.0288,0.0325,0.0327,0.0329,0.0342,0.0305,0.0305,0.0304,0.0304,0.0304,0,0,0.0185,0.0195,0.0201,0.0216,0.0222,0.024,0.023,0.024,0.0261,0.0249,0.028,0.0274,0.028,0.03,0.0309,0.0307,0.0315,0.033,0.0332,0.0344,0.0305,0.0305,0.0305,0.0304,0.0304,0.0304,0,0,0.0198,0.0203,0.022,0.0231,0.0243,0.0248,0.0253,0.0264,0.0275,0.0295,0.0291,0.0295,0.0316,0.0323,0.0329,0.0348,0.0323,0.035,0.0385,0.0348,0.0348,0.0347,0.0306,0.0302,0.0359,0.0359,0.0359,0,0.0199,0.0227,0.0225,0.0247,0.0266,0.0256,0.0283,0.029,0.0306,0.0318,0.0311,0.0328,0.033,0.0352,0.0363,0.0356,0.0326,0.0374,0.0351,0.035,0.0349,0.0307,0.0302,0.036,0.036,0.036,0.036,0,0.0229,0.0254,0.0266,0.0295,0.0308,0.033,0.0341,0.0354,0.0361,0.0367,0.0384,0.0376,0.0387,0.0387,0.0387,0.0389,0.0366,0.0351,0.0343,0.0351,0.0306,0.03,0.0362,0.0362,0.0361,0.0361,0,0,0.0231,0.0279,0.0285,0.0315,0.0342,0.0357,0.0388,0.0415,0.0434,0.0436,0.0454,0.0466,0.0448,0.0453,0.044,0.0419,0.0383,0.0391,0.0388,0.0351,0.0293,0.0288,0.0281,0.0358,0.0357,0.0357,0.026,0,0.0261,0.0318,0.0334,0.039,0.0423,0.0433,0.0465,0.0482,0.0488,0.0496,0.0479,0.0488,0.0477,0.0476,0.0453,0.04,0.037,0.041,0.0292,0.0288,0.0284,0.0276,0.0355,0.0256,0.0254,0.0253,0.0253,0,0.0292,0.033,0.0393,0.0454,0.0468,0.0498,0.0543,0.0569,0.057,0.0572,0.0565,0.0539,0.0521,0.0495,0.0416,0.0439,0.0376,0.0328,0.0322,0.0309,0.0274,0.0249,0.0242,0.0242,0.0243,0.0244,0.0245,0,0.0308,0.0374,0.043,0.0453,0.0511,0.0544,0.0573,0.0594,0.062,0.0612,0.0612,0.0577,0.0557,0.0478,0.039,0.0398,0.0277,0.0269,0.0203,0.0201,0.022,0.0221,0.0201,0.0201,0.0201,0.0201,0.0202,0,0.0344,0.0389,0.0445,0.0479,0.0543,0.0572,0.063,0.0648,0.0665,0.0684,0.065,0.064,0.0551,0.0472,0.0386,0.0277,0.0269,0.021,0.0178,0.0233,0.0237,0.0214,0.0217,0.0198,0.0198,0.0199,0.02,0,0.0355,0.0395,0.0461,0.0531,0.0556,0.06,0.0671,0.0703,0.0717,0.0733,0.073,0.0682,0.059,0.0482,0.0345,0.0279,0.0167,0.0124,0.0184,0.0156,0.0115,0.0121,0.005,0.0049,0.0049,0.0048,0.0048,0,0.0369,0.0405,0.0488,0.0529,0.0566,0.0634,0.0681,0.0725,0.075,0.0755,0.075,0.0681,0.0632,0.0431,0.0324,0.015,0.013,0.0066,0.0108,0.0125,0.0101,0.0108,0.0114,0.0046,0.0046,0.0046,0.0046,0,0.0388,0.0414,0.0463,0.0545,0.0607,0.0673,0.0735,0.0758,0.0796,0.0803,0.0761,0.0674,0.0568,0.0431,0.0293,0.017,0.0109,0.0058,0.006,0.0099,0.0119,0.0098,0.0105,0.0043,0.0044,0.0044,0.0044,0,0.0393,0.042,0.0482,0.0555,0.0628,0.0691,0.0733,0.0761,0.0789,0.0788,0.0768,0.0666,0.0609,0.0439,0.0308,0.0193,0.0177,0.0142,0.0139,0.0141,0.0204,0.0245,0.0182,0,0,0,0,0,0.0397,0.0427,0.0489,0.0567,0.0638,0.0686,0.0755,0.0787,0.0815,0.0786,0.0781,0.068,0.0516,0.0443,0.0327,0.03,0.0157,0.0162,0.0115,0.0029,0.0032,0.0092,0,0,0,0,0,0,0.0398,0.045,0.048,0.0561,0.0615,0.0695,0.0747,0.0774,0.0755,0.0761,0.0671,0.064,0.0474,0.0571,0.0318,0.0286,0.024,0.0087,0.0084,0.0027,0.003,0.0032,0.0095,0,0,0,0,0]}]]